TimeCST,TemperatureF,Dew PointF,Humidity,Sea Level PressureIn,VisibilityMPH,Wind Direction,Wind SpeedMPH,Gust SpeedMPH,PrecipitationIn,Events,Conditions,WindDirDegrees,DateUTC
12:24 AM,44.6,42.8,93,30.16,10.0,North,3.5,-,N/A,,Mostly Cloudy,350,2012-12-15 06:24:00
12:56 AM,46.0,43.0,89,30.12,10.0,North,3.5,-,N/A,,Overcast,350,2012-12-15 06:56:00
1:56 AM,46.0,43.0,89,30.12,10.0,NNE,5.8,-,N/A,,Overcast,20,2012-12-15 07:56:00
2:15 AM,46.4,42.8,87,30.14,10.0,NE,3.5,-,N/A,,Overcast,40,2012-12-15 08:15:00
2:26 AM,46.4,42.8,87,30.15,10.0,North,3.5,-,N/A,,Overcast,360,2012-12-15 08:26:00
2:44 AM,46.4,42.8,87,30.14,10.0,ENE,4.6,-,N/A,,Overcast,60,2012-12-15 08:44:00
2:56 AM,46.0,44.1,93,30.12,10.0,NNE,5.8,-,N/A,,Overcast,30,2012-12-15 08:56:00
3:56 AM,46.9,45.0,93,30.11,10.0,Calm,Calm,-,N/A,,Overcast,0,2012-12-15 09:56:00
4:19 AM,48.2,44.6,87,30.12,10.0,NE,4.6,-,N/A,,Scattered Clouds,50,2012-12-15 10:19:00
4:56 AM,48.0,45.0,89,30.07,10.0,East,8.1,-,N/A,,Clear,90,2012-12-15 10:56:00
5:56 AM,48.9,46.0,90,30.11,10.0,ENE,5.8,-,N/A,,Clear,60,2012-12-15 11:56:00
6:56 AM,48.9,46.0,90,30.12,10.0,ENE,5.8,-,N/A,,Clear,70,2012-12-15 12:56:00
7:56 AM,50.0,46.9,89,30.13,10.0,East,4.6,-,N/A,,Clear,100,2012-12-15 13:56:00
8:56 AM,54.0,48.9,83,30.12,10.0,East,6.9,-,N/A,,Scattered Clouds,100,2012-12-15 14:56:00
9:28 AM,55.4,50.0,82,30.17,10.0,East,6.9,-,N/A,,Mostly Cloudy,80,2012-12-15 15:28:00
9:56 AM,57.9,51.1,78,30.13,10.0,East,5.8,-,N/A,,Overcast,80,2012-12-15 15:56:00
10:56 AM,61.0,53.1,75,30.11,10.0,East,5.8,-,N/A,,Partly Cloudy,100,2012-12-15 16:56:00
11:56 AM,64.9,55.9,73,30.07,10.0,SE,6.9,-,N/A,,Partly Cloudy,130,2012-12-15 17:56:00
12:32 PM,66.2,55.4,68,30.08,6.0,SE,8.1,-,N/A,,Haze,130,2012-12-15 18:32:00
12:56 PM,66.0,57.0,73,30.04,7.0,SE,8.1,-,N/A,,Overcast,130,2012-12-15 18:56:00
1:56 PM,68.0,57.9,70,30.03,10.0,SE,10.4,-,N/A,,Overcast,130,2012-12-15 19:56:00
2:56 PM,66.9,57.9,73,30.03,10.0,SSE,8.1,-,N/A,,Overcast,160,2012-12-15 20:56:00
3:56 PM,66.0,57.9,75,30.02,10.0,SE,8.1,-,N/A,,Overcast,140,2012-12-15 21:56:00
4:31 PM,64.4,57.2,77,30.05,10.0,SE,6.9,-,N/A,,Overcast,140,2012-12-15 22:31:00
4:56 PM,63.0,57.0,81,30.03,10.0,SE,5.8,-,N/A,,Mostly Cloudy,140,2012-12-15 22:56:00
5:56 PM,62.1,57.9,86,30.02,10.0,SE,5.8,-,N/A,,Overcast,130,2012-12-15 23:56:00
6:04 PM,62.6,57.2,82,30.06,10.0,SE,4.6,-,N/A,,Overcast,130,2012-12-16 00:04:00
6:56 PM,62.1,57.9,86,30.03,10.0,ESE,4.6,-,N/A,,Overcast,120,2012-12-16 00:56:00
7:56 PM,62.1,59.0,90,30.02,10.0,ESE,3.5,-,N/A,,Overcast,120,2012-12-16 01:56:00
8:56 PM,62.1,59.0,90,30.03,10.0,SE,3.5,-,N/A,,Overcast,140,2012-12-16 02:56:00
9:33 PM,60.8,57.2,88,30.06,10.0,ESE,4.6,-,N/A,,Mostly Cloudy,120,2012-12-16 03:33:00
9:42 PM,60.8,57.2,88,30.05,10.0,ESE,4.6,-,N/A,,Mostly Cloudy,120,2012-12-16 03:42:00
9:56 PM,61.0,57.9,90,30.01,10.0,ESE,5.8,-,N/A,,Overcast,120,2012-12-16 03:56:00
10:23 PM,60.8,57.2,88,30.04,10.0,ESE,3.5,-,N/A,,Overcast,110,2012-12-16 04:23:00
10:56 PM,61.0,59.0,93,30.02,10.0,Calm,Calm,-,N/A,,Mostly Cloudy,0,2012-12-16 04:56:00
11:07 PM,60.8,57.2,88,30.05,10.0,Calm,Calm,-,N/A,,Scattered Clouds,0,2012-12-16 05:07:00
11:34 PM,59.0,57.2,94,30.05,7.0,Calm,Calm,-,N/A,,Mostly Cloudy,0,2012-12-16 05:34:00
11:56 PM,60.1,57.9,93,29.99,6.0,SE,4.6,-,N/A,,Mostly Cloudy,140,2012-12-16 05:56:00